Location: Casette
(42.0000°N, 12.7167°E)
Time: 12:53:46
(UTC+00:00)

Daily predictions for brighter satellites

Satellite Brightness Start Highest point End
(mag) Time Altitude Azimuth Time Altitude Azimuth Time Altitude Azimuth
Cosmos 2181 Rocket 4.4 15:55:40 10° SSE 16:01:41 45° E 16:07:40 10° NNE
Cosmos 389 Rocket 2.5 16:01:13 10° SSW 16:04:37 79° W 16:08:03 10° N
Cosmos 2237 Rocket 3.5 15:59:35 10° SW 16:04:48 38° WNW 16:10:03 10° N
PSLV R/B 3.9 16:03:35 10° SSE 16:07:42 89° ENE 16:11:47 10° NNW
Cosmos 1666 Rocket 3.8 16:03:23 10° N 16:07:42 50° E 16:12:01 10° SSE
CZ-4B R/B 3.3 16:03:00 10° SE 16:08:05 48° ENE 16:13:09 10° N
Cosmos 44 3.5 16:03:46 10° NNW 16:09:06 75° NE 16:14:32 10° SE
CZ-3B R/B 3.3 16:06:15 10° S 16:09:10 16° SE 16:10:56 10° E
H-2A R/B 2.4 16:06:43 10° SSE 16:10:57 71° ENE 16:15:02 10° N
Cosmos 1943 4.5 16:09:02 10° SSE 16:13:10 21° E 16:17:19 10° NE
MOS 1-B 4.4 16:07:30 10° SSE 16:13:18 86° ENE 16:19:08 10° NNW
Cosmos 2369 Rocket 3.0 16:11:39 10° N 16:16:37 30° NE 16:21:32 10° ESE
NOAA 12 4.2 16:12:30 10° SSE 16:17:41 56° ENE 16:22:53 10° N
CENTAUR R/B 4.2 16:15:49 10° ESE 16:17:47 12° ESE 16:19:49 10° E
Cosmos 1943 Rocket 2.4 16:12:59 10° NNW 16:18:22 47° ENE 16:23:45 10° SE
ADEOS Rocket 3.9 16:10:55 10° N 16:18:42 74° WNW 16:26:17 10° SSW
H-2A R/B 2.0 16:18:34 10° NNE 16:22:50 81° ESE 16:27:09 10° SSW
NOAA 6 4.3 16:19:17 10° S 16:24:26 77° WSW 16:29:35 10° NNW
Okean O Rocket 1.7 16:20:17 10° SSE 16:24:31 55° ENE 16:28:50 10° N
Cosmos 1782 3.4 16:21:51 10° SSE 16:25:29 36° E 16:29:09 10° NNE
Okean-O 4.3 16:24:23 10° E 16:26:29 13° ENE 16:28:34 10° NNE
H-2A R/B 4.3 16:25:30 10° SSW 16:29:07 40° W 16:32:48 10° NNW
ISS -1.7 16:28:55 10° NW 16:31:04 16° N 16:32:58 11° NE
Cosmos 1933 3.4 16:27:04 10° S 16:31:07 84° W 16:35:12 10° N
Cosmos 1633 Rocket 3.0 16:27:34 10° N 16:31:57 76° E 16:36:17 10° SSE
Cosmos 2218 Rocket 3.9 16:32:21 10° N 16:38:31 70° E 16:44:39 10° SSE
SKYMED 2 4.4 16:35:05 10° NE 16:38:54 29° E 16:42:41 10° SSE
Cosmos 2366 rocket 3.9 16:33:19 10° N 16:39:29 69° E 16:45:35 10° SSE
ERS-2 2.7 16:36:29 10° NNE 16:39:53 36° E 16:43:17 10° SSE
Meteor 1-25 Rocket 4.2 16:34:37 10° N 16:40:18 86° E 16:46:02 10° S
Envisat 3.9 16:35:48 10° S 16:40:44 52° W 16:45:43 10° NNW
Cosmos 489 Rocket 4.4 16:35:37 10° S 16:41:44 70° ESE 16:47:57 10° NNE
Lacrosse 5 rocket 3.0 16:44:38 10° W 16:47:28 21° NNW 16:50:15 10° NNE
Cosmos 773 Rocket 4.4 16:42:22 10° SSW 16:47:36 68° WNW 16:52:54 10° NNE
SL-23 DEB 4.1 16:45:17 10° WSW 16:48:46 73° NNW 16:52:39 17° NE
YAOGAN 6 4.3 16:46:33 10° SSW 16:49:56 37° W 16:53:20 10° NNW
NOSS 3-2 (A) 3.9 16:45:06 10° S 16:50:07 37° ESE 16:54:01 18° ENE
FengYun 1-2 T 4.2 16:49:21 10° SSE 16:54:53 83° ENE 17:00:24 10° NNW
AQUARIUS 4.5 16:50:30 10° S 16:54:58 70° WSW 16:59:28 10° NNW
Feng Yun 1-1 Rocket 4.3 16:49:24 10° SSE 16:55:01 57° ENE 17:00:30 10° N
SL-16 R/B 3.4 16:52:38 10° SW 16:57:55 40° WNW 17:03:14 10° N
CZ-4B R/B 1.1 16:56:26 11° NNE 16:59:23 86° ESE 17:02:33 10° SSW
BREEZE-M DEB (TANK) 3.0 17:01:07 10° W 17:03:07 25° NNW 17:03:26 24° N
USA 215 3.6 16:59:21 19° ENE 17:03:52 50° SE 17:10:10 10° SSW
SMAP 4.1 16:59:30 10° S 17:04:01 49° W 17:08:33 10° NNW
Cosmos 1500 3.4 17:03:50 10° N 17:07:30 43° ENE 17:11:10 10° SSE
YAOGAN 1 3.9 17:09:19 22° NE 17:09:19 22° NE 17:11:25 10° N
USA 238 DEB 3.9 17:02:59 10° S 17:09:11 48° ESE 17:13:06 23° NE
USA 238 3.9 17:03:05 10° S 17:09:18 48° ESE 17:13:10 23° NE
Cosmos 1151 Rocket 4.4 17:07:20 10° SSW 17:11:20 38° WNW 17:15:20 10° N
Cosmos 1656 Rocket 3.9 17:06:54 10° NNW 17:12:18 44° ENE 17:17:20 11° SE
SL-24 DEB 4.2 17:08:36 10° N 17:13:20 68° E 17:17:59 10° S
Cosmos 1470 Rocket 3.9 17:10:08 10° NNW 17:14:26 66° W 17:18:42 10° S
MOS 1 Rocket 4.0 17:13:25 21° NE 17:16:36 40° E 17:21:35 10° SSE
STPSAT 2 (USA 217) 4.5 17:12:27 10° SSW 17:16:58 80° ESE 17:19:42 24° NNE
Cosmos 158 Rocket 3.9 17:13:50 10° S 17:18:41 55° ESE 17:20:54 30° NE
Cosmos 1515 Rocket 3.9 17:14:54 10° SSW 17:19:14 65° W 17:23:39 10° N
CZ-2C R/B 3.1 17:14:57 10° SE 17:19:43 46° ENE 17:24:19 10° N
Cosmos 2263 4.1 17:15:35 10° NNW 17:21:11 68° ENE 17:26:45 10° SSE
Cosmos 923 Rocket 3.9 17:16:55 10° S 17:22:01 62° ESE 17:24:49 27° NE
Cosmos 1934 Rocket 4.4 17:17:31 10° N 17:23:23 38° ENE 17:29:09 10° SE
USA 281 3.4 17:20:16 10° SE 17:26:31 49° ENE 17:32:48 10° NNW
Cosmos 1238 Rocket 3.2 17:22:33 10° N 17:26:36 52° E 17:31:30 10° SSE
COSMO-SKYMED 1 2.6 17:23:06 12° N 17:27:05 82° WNW 17:31:25 10° SSW
Cosmos 1689 Rocket 3.0 17:29:01 37° S 17:29:01 37° S 17:30:57 10° S
Nadezhda 3 Rocket 3.9 17:22:07 10° S 17:28:26 74° E 17:34:49 10° NNE
X-37B 1.2 17:26:35 10° W 17:29:28 49° NNW 17:29:28 49° NNW
SAR-Lupe-4 3.6 17:29:14 36° N 17:30:37 79° WNW 17:34:11 10° SSW
Helios 1A Rocket 4.3 17:33:26 24° N 17:33:26 24° N 17:35:10 10° N
Meteor 2-6 Rocket 4.1 17:26:00 10° S 17:31:36 85° E 17:37:06 10° N
Cosmos 2228 Rocket 3.0 17:27:16 10° S 17:31:48 80° E 17:34:29 24° NNE
H-2A R/B 2.5 17:35:18 40° NE 17:35:18 40° NE 17:39:24 10° N
Cosmos 1812 2.6 17:31:51 10° S 17:35:40 88° W 17:36:35 51° N
USA 267 3.8 17:34:11 33° NE 17:35:53 38° NNE 17:41:47 10° NW
Cosmos 1939 Rocket 3.5 17:33:29 10° S 17:37:16 54° W 17:41:08 10° NNW
CZ-4 R/B 4.4 17:34:53 10° S 17:39:01 80° WSW 17:43:10 10° NNW
Cosmos 1821 Rocket 3.9 17:33:06 10° N 17:39:23 85° E 17:45:45 10° S
CZ-4 R/B 2.7 17:41:27 28° N 17:41:27 28° N 17:43:29 10° N
Cosmos 2084 4.2 17:36:23 10° S 17:39:33 38° SSE 17:39:33 38° SSE
Meteor 1-11 Rocket 3.8 17:36:47 10° N 17:42:31 57° ENE 17:48:18 10° SSE
BREEZE-M DEB (TANK) 2.6 17:39:51 10° SW 17:42:53 48° SSW 17:42:53 48° SSW
PSLV R/B 3.9 17:42:20 47° N 17:43:25 79° WNW 17:47:27 10° SSW
IRS-1C Rocket 4.3 17:38:12 10° S 17:43:28 72° WSW 17:48:45 10° NNW
Cosmos 44 Rocket 3.4 17:39:40 10° NNW 17:44:49 61° NE 17:45:08 59° ENE
Lacrosse 4 Rocket 2.5 17:44:40 10° S 17:46:59 31° S 17:46:59 31° S
Cosmos 1680 Rocket 3.4 17:43:37 10° SSW 17:48:53 82° ESE 17:50:19 50° NNE
Cosmos 1603 4.4 17:47:54 10° SW 17:53:23 52° WNW 17:56:56 21° N
CZ-2D R/B 4.2 17:50:27 10° S 17:54:08 48° W 17:57:52 10° NNW
Cosmos 1943 3.8 17:51:11 10° SW 17:56:43 56° WNW 17:59:58 25° N
Cosmos 2369 Rocket 3.4 17:55:27 10° NW 18:00:45 42° WSW 18:06:00 10° S
Cosmos 1943 Rocket 4.4 17:57:23 10° NW 18:01:47 24° WSW 18:06:11 10° SSW
Okean-O 2.9 17:58:00 10° S 18:02:24 66° WSW 18:06:49 10° NNW
Cosmos 1461 3.5 17:59:03 10° SSW 18:02:44 58° SSW 18:02:44 58° SSW
CENTAUR R/B 2.3 18:01:11 10° SSW 18:06:56 81° ESE 18:07:45 68° NE
ISS -0.7 18:05:44 10° NW 18:05:55 11° NW 18:05:55 11° NW
Cosmos 2112 Rocket 4.0 18:04:12 10° SSW 18:09:28 78° WNW 18:09:54 72° NNW
NOSS 3-2 (C) 3.2 18:09:32 10° SSW 18:15:05 90° NW 18:15:09 88° NNE
Meteor 1-27 Rocket 3.7 18:14:48 10° SSW 18:20:11 77° W 18:20:11 77° W
BREEZE-M DEB (TANK) 4.1 18:13:59 10° WSW 18:19:59 46° WNW 18:19:59 46° WNW
NOSS 3-2 (A) 4.3 18:35:28 10° WSW 18:40:50 40° NW 18:41:27 39° NNW
USA 215 3.7 18:46:42 53° NNW 18:46:53 53° NNW 18:53:12 10° WSW
H-2A R/B 4.3 19:15:55 20° WNW 19:15:55 20° WNW 19:18:14 10° NW
USA 267 4.5 19:21:32 35° NW 19:21:32 35° NW 19:25:05 10° NW
